OBJECT A

基本信息
目录编号:
59805
目录名称:
OBJECT A
国际标识:
2024-094A
轨道中心:
EARTH
物体状态:
在轨
发射日期:
2024-05-20 UTC
国别:
中国 (CN)
轨道信息
数据来源: 国际轨道数据
星历时间: 2026-09-04T14:28:05+0800
半长轴: 6893.641km
偏心率: 0.0000321
轨道倾角: 97.380°
近地点辐角: 13.215°
升交点赤经: 316.009°
平近点角: 346.909°
近地点: 515.282km
远地点: 515.726km
周期: 94.936分钟
每日圈数: 15.168051
详细信息
发射场:
TSC
轨道高度:
LEO
数据来源:
AOE Working Group
参考系:
TEME
时间系统:
UTC
历元类型:
SGP4
2D轨道图
3D轨道图
轨道高度分析图
轨道倾角分析图
轨道综合分析图
查看轨道综合分析图